Lid_Strength_Index
1 1 1 1 1 1 1 1 0 -0 -0 0 -0 0 0 0 0 0 0 0 0 0 0 0 1 -0 1 0 0 0 1 1 3 2 1 -0 -0 -0 0 1 1 2 2
1 1 1 1 1 1 1 1 -0 0 -0 -0 -0 0 0 0 -0 0 1 0 1 1 1 0 1 0 0 0 0 1 1 1 2 3 1 1 0 -0 0 2 1 2 2
1 1 1 1 1 1 1 1 0 0 0 0 0 0 0 0 0 0 0 0 0 0 0 1 1 1 1 1 1 1 1 1 1 2 2 1 0 -0 1 1 2 3 2
1 1 2 1 1 1 1 0 0 0 0 0 0 0 0 0 0 0 0 0 0 0 0 0 0 1 1 1 1 1 1 1 1 2 2 2 1 0 0 1 2 3 3
2 2 2 1 1 1 1 1 0 0 0 0 0 0 0 0 0 0 0 0 1 1 0 0 -0 0 1 1 0 0 1 1 2 2 2 2 2 2 2 1 2 2 3
2 2 1 1 1 1 1 1 1 1 0 0 1 0 1 0 3 3 1 0 1 1 1 0 -0 1 1 3 3 2 1 1 2 2 2 3 2 1 1 1 2 2 3
2 2 2 1 1 1 1 1 1 1 1 1 1 1 1 0 4 4 3 0 1 1 1 1 1 1 1 0 2 3 3 3 2 1 2 2 2 2 2 1 1 2 2
2 2 2 2 2 1 1 1 1 1 1 1 1 1 1 3 6 6 5 3 2 2 2 2 2 3 4 4 1 1 2 4 4 3 3 5 5 5 4 2 1 3 4
3 3 2 2 2 2 2 2 1 1 1 1 1 1 1 4 7 6 5 3 3 4 4 3 3 4 6 5 2 1 5 6 7 6 6 6 5 5 5 3 3 3 3
2 2 2 2 1 2 2 2 1 1 1 2 3 3 5 5 7 7 5 1 4 6 6 6 6 5 7 6 2 1 3 5 5 6 7 6 6 6 6 7 7 5 6
3 3 2 2 2 1 1 1 1 2 4 5 5 5 5 5 5 6 6 3 4 5 6 7 7 8 9 8 7 3 3 5 4 6 6 5 5 5 5 6 6 7 6
2 2 2 2 2 1 2 2 3 4 5 5 6 6 6 6 7 7 6 6 5 6 7 7 8 9 9 8 7 8 7 5 4 5 4 4 4 6 6 6 5 6 5
3 3 3 3 3 2 3 4 4 4 5 5 5 6 6 6 7 9 9 8 7 6 6 7 8 10 9 8 8 7 5 4 4 4 4 4 5 6 6 6 5 4 4
3 3 3 4 4 4 4 4 4 5 5 5 6 6 7 6 6 6 6 6 7 6 6 6 7 7 7 7 7 6 6 6 5 6 7 6 6 6 6 7 6 5 4
4 4 5 6 7 8 10 9 6 7 6 5 6 6 6 7 8 10 8 6 6 7 6 6 6 7 7 6 6 6 6 6 6 6 6 6 5 4 5 4 4 4 3
4 5 6 6 7 8 8 10 12 13 12 12 11 9 11 12 13 14 13 13 12 11 6 5 5 5 5 5 5 6 6 5 5 5 4 5 5 5 5 4 4 4 4
4 4 5 5 5 6 6 6 8 11 13 14 14 14 13 12 13 14 14 14 12 9 5 5 5 5 5 5 5 5 5 5 5 5 5 5 5 5 5 5 4 4 4
4 6 4 5 5 6 6 7 7 6 9 11 14 14 14 14 14 13 13 10 7 6 4 5 5 5 5 5 4 4 5 5 5 5 5 5 5 5 6 6 6 5 5
4 4 4 4 4 5 6 6 8 9 10 10 10 11 12 13 13 12 11 5 5 5 5 4 4 4 4 3 4 4 5 5 5 5 6 6 6 6 6 6 6 8 7
3 4 4 4 4 5 5 6 8 8 8 8 7 7 7 7 5 6 8 7 5 6 5 3 3 2 3 3 4 5 5 6 6 6 6 7 7 6 7 7 6 7 6
3 3 4 4 4 4 4 5 6 6 6 5 5 5 8 5 6 6 7 6 5 4 3 3 2 2 2 3 3 4 4 5 5 6 6 6 6 6 6 6 6 6 6
3 3 4 4 4 4 4 4 5 6 6 5 5 5 8 5 5 4 4 4 4 3 3 2 2 2 2 3 3 3 4 4 4 5 5 6 6 6 6 6 5 5 5
5 5 6 6 5 6 5 6 5 4 4 4 3 4 4 4 4 4 4 3 3 3 3 2 2 2 2 2 2 2 3 3 3 4 5 5 5 4 4 4 4 4 4
5 5 6 5 5 5 4 4 4 6 4 4 4 5 4 4 4 4 3 3 3 2 3 3 2 1 2 2 2 2 2 3 4 4 3 4 4 5 4 3 3 3 3
4 3 3 5 5 5 5 5 5 4 4 4 4 5 4 4 4 4 3 3 3 3 3 2 2 2 2 2 2 3 6 10 4 6 3 3 3 3 3 2 3 3 3
3 4 5 5 6 5 5 5 5 5 5 5 5 5 5 5 4 4 3 3 3 3 3 3 2 2 2 2 2 6 12 11 6 8 3 2 2 2 2 2 2 1 2